Weather History for KONP - October, 2014

Change the Weather History Date:

Friday, October 17, 2014

  Actual Average Record
Temperature  
Mean Temperature 60 °F -  
Max Temperature 62 °F 57 °F 69 °F (2000)
Min Temperature 59 °F 46 °F 39 °F (2001)
Degree Days  
Heating Degree Days 4    
Growing Degree Days 10 (Base 50)    
Moisture  
Dew Point 56 °F    
Average Humidity 87    
Maximum Humidity 100    
Minimum Humidity 63    
Precipitation  
Precipitation 0.54 in - - ()
Sea Level Pressure  
Sea Level Pressure 29.82 in    
Wind  
Wind Speed 9 mph (South)    
Max Wind Speed 21 mph    
Max Gust Speed 29 mph    
Visibility 5 miles    
Events Rain    
Averages and records for this station are not official NWS values.
T = Trace of Precipitation, MM = Missing Value Source: NWS Daily Summary

Daily Weather History Graph

Daily Weather History Graph

Search for Another Location

Airport or City:

Trip Planner

Search our weather history database for the weather conditions in past years. The results will help you decide how hot, cold, wet, or windy it might be!

Date:

Astronomy

Oct. 17, 2014 Rise Set
Actual Time 7:34 AM PDT 6:28 PM PDT
Civil Twilight 7:04 AM PDT 6:57 PM PDT
Nautical Twilight 6:30 AM PDT 7:31 PM PDT
Astronomical Twilight 5:57 AM PDT 8:05 PM PDT
Moon 1:30 AM PDT (10/17) 3:30 PM PDT (10/17)
Length of Visible Light 11h 52m
Length of Day
10h 54m
Waning Crescent, 32% of the Moon is Illuminated
Oct 17
Waning Crescent
Oct 23
New
Oct 30
First Quarter
Nov 6
Full
Nov 14
Last Quarter

Hourly Weather History & Observations

Time (PDT) Temp. Dew Point Humidity Pressure Visibility Wind Dir Wind Speed Gust Speed Precip Events Conditions
7:55 AM 60.8 °F 50.0 °F 68% 29.73 in 10.0 mi SE 6.9 mph - N/A   Unknown
8:15 AM 62.6 °F 50.0 °F 63% 29.73 in 10.0 mi SE 10.4 mph - N/A   Overcast
8:35 AM 60.8 °F 50.0 °F 68% 29.73 in 10.0 mi East 8.1 mph 16.1 mph N/A   Overcast
8:55 AM 62.6 °F 50.0 °F 63% 29.74 in 10.0 mi SE 11.5 mph - N/A   Overcast
9:15 AM 62.6 °F 50.0 °F 63% 29.75 in 10.0 mi SSE 8.1 mph - N/A   Overcast
9:35 AM 62.6 °F 50.0 °F 63% 29.75 in 10.0 mi SSE 9.2 mph - N/A   Overcast
9:55 AM 62.6 °F 50.0 °F 63% 29.75 in 10.0 mi SSE 6.9 mph - N/A   Overcast
10:15 AM 62.6 °F 50.0 °F 63% 29.75 in 10.0 mi SE 8.1 mph - N/A   Overcast
10:35 AM 62.6 °F 50.0 °F 63% 29.75 in 10.0 mi SSE 12.7 mph 18.4 mph N/A Rain Light Rain
10:55 AM 62.6 °F 51.8 °F 68% 29.75 in 10.0 mi SSE 9.2 mph 17.3 mph N/A   Overcast
11:15 AM 62.6 °F 51.8 °F 68% 29.76 in 10.0 mi South 8.1 mph - N/A Rain Light Rain
11:35 AM 62.6 °F 53.6 °F 72% 29.76 in 10.0 mi South 5.8 mph - N/A Rain Rain
11:55 AM 62.6 °F 53.6 °F 72% 29.77 in 10.0 mi South 11.5 mph - N/A Rain Light Rain
12:15 PM 60.8 °F 55.4 °F 82% 29.78 in 5.0 mi SSE 11.5 mph - N/A   Heavy Drizzle
12:35 PM 59.0 °F 55.4 °F 88% 29.78 in 5.0 mi SSE 4.6 mph - 0.01 in   Drizzle
12:55 PM 59.0 °F 55.4 °F 88% 29.78 in 3.0 mi SSE 8.1 mph - 0.04 in Rain Rain
1:15 PM 59.0 °F 55.4 °F 88% 29.78 in 5.0 mi SSE 8.1 mph 16.1 mph 0.01 in Rain Heavy Rain
1:35 PM 59.0 °F 55.4 °F 88% 29.78 in 5.0 mi SSE 8.1 mph 16.1 mph 0.02 in Rain Rain
1:55 PM 59.0 °F 55.4 °F 88% 29.78 in 5.0 mi SSE 10.4 mph - 0.02 in   Drizzle
2:15 PM 59.0 °F 55.4 °F 88% 29.78 in 7.0 mi SSE 8.1 mph - 0.01 in Rain Heavy Rain
2:35 PM 59.0 °F 55.4 °F 88% 29.78 in 5.0 mi SSE 10.4 mph - 0.02 in   Drizzle
2:55 PM 59.0 °F 55.4 °F 88% 29.79 in 5.0 mi SSE 8.1 mph - 0.02 in   Drizzle
3:15 PM 59.0 °F 55.4 °F 88% 29.79 in 4.0 mi SSE 9.2 mph - 0.01 in Rain Heavy Rain
3:35 PM 59.0 °F 57.2 °F 94% 29.80 in 7.0 mi South 4.6 mph - 0.01 in   Drizzle
3:55 PM 59.0 °F 57.2 °F 94% 29.81 in 3.0 mi South 4.6 mph - 0.01 in   Drizzle
4:15 PM 59.0 °F 57.2 °F 94% 29.82 in 2.5 mi South 3.5 mph - 0.01 in   Heavy Drizzle
4:35 PM 59.0 °F 57.2 °F 94% 29.82 in 2.5 mi SSE 4.6 mph - 0.02 in   Heavy Drizzle
4:55 PM 59.0 °F 57.2 °F 94% 29.82 in 2.0 mi South 3.5 mph - 0.04 in   Heavy Drizzle
5:15 PM 59.0 °F 57.2 °F 94% 29.83 in 2.0 mi Calm Calm - 0.02 in Rain Heavy Rain
5:35 PM 59.0 °F 57.2 °F 94% 29.83 in 2.5 mi Calm Calm - 0.05 in Rain Heavy Rain
5:55 PM 59.0 °F 59.0 °F 100% 29.83 in 1.8 mi South 3.5 mph - 0.09 in Rain Heavy Rain
6:15 PM 59.0 °F 59.0 °F 100% 29.83 in 1.8 mi Calm Calm - 0.02 in   Heavy Drizzle
6:35 PM 59.0 °F 59.0 °F 100% 29.84 in 1.2 mi SSW 3.5 mph - 0.03 in   Drizzle
6:55 PM 59.0 °F 59.0 °F 100% 29.84 in 2.5 mi SSW 9.2 mph - 0.11 in Rain Light Rain
7:15 PM 59.0 °F 57.2 °F 94% 29.85 in 2.5 mi SSW 18.4 mph 25.3 mph 0.04 in Rain Rain
7:35 PM 59.0 °F 59.0 °F 100% 29.85 in 2.5 mi SSW 18.4 mph 28.8 mph 0.06 in Rain Rain
7:55 PM 59.0 °F 59.0 °F 100% 29.86 in 4.0 mi South 20.7 mph 26.5 mph 0.07 in   Drizzle
8:15 PM 59.0 °F 59.0 °F 100% 29.87 in 3.0 mi South 16.1 mph 24.2 mph 0.01 in Rain Light Rain
8:35 PM 59.0 °F 59.0 °F 100% 29.88 in 3.0 mi South 17.3 mph 25.3 mph 0.02 in Rain Rain
8:55 PM 59.0 °F 59.0 °F 100% 29.88 in 7.0 mi South 18.4 mph 25.3 mph 0.03 in   Overcast
9:15 PM 59.0 °F 59.0 °F 100% 29.89 in 5.0 mi South 15.0 mph 24.2 mph N/A   Overcast
9:35 PM 59.0 °F 59.0 °F 100% 29.89 in 4.0 mi South 18.4 mph 26.5 mph N/A Rain Light Rain
9:55 PM 59.0 °F 59.0 °F 100% 29.90 in 2.5 mi South 15.0 mph 24.2 mph N/A Rain Light Rain
10:15 PM 59.0 °F 59.0 °F 100% 29.90 in 2.5 mi South 15.0 mph 21.9 mph 0.01 in Rain Light Rain
10:35 PM 59.0 °F 59.0 °F 100% 29.90 in 2.5 mi South 13.8 mph 21.9 mph 0.03 in   Heavy Drizzle
10:55 PM 59.0 °F 59.0 °F 100% 29.91 in 3.0 mi SSW 16.1 mph - 0.04 in   Drizzle
11:15 PM 59.0 °F 59.0 °F 100% 29.91 in 3.0 mi South 17.3 mph 25.3 mph 0.01 in Rain Light Rain
11:35 PM 59.0 °F 59.0 °F 100% 29.91 in 3.0 mi South 19.6 mph 23.0 mph 0.03 in Rain Rain
11:55 PM 59.0 °F 59.0 °F 100% 29.92 in 2.5 mi South 17.3 mph 26.5 mph 0.07 in Rain Rain